Other Public Products
Issued by NWS Grand Forks, ND

Home | Current Version | Previous Version | Text Only | Print | Product List | Glossary On
Versions: 1 2 3 4 5 6 7 8 9 10 11 12 13 14 15 16 17 18 19 20 21 22 23 24 25 26 27 28 29 30 31 32 33 34 35 36 37 38 39 40 41 42 43 44 45 46 47 48 49 50
000
FPUS83 KFGF 020310
OPUFGF
PRAIRIE TO PINES WEATHER ROUNDUP
NATIONAL WEATHER SERVICE EASTERN NORTH DAKOTA/GRAND FORKS ND
1000 PM CDT TUE SEP 01 2015

 **SATELLITE DATA USED TO AUGMENT SKY COVER AT AUTOMATED STATIONS**
 *****  WEATHER ACROSS EASTERN NORTH DAKOTA  *****

CITY           SKY/WX    TMP DP  RH WIND       PRES   REMARKS
GRAND FORKS    PTCLDY    72  56  57 SE9       29.83R
GRAND FORKS AF CLEAR     69  56  62 SE8       29.83S
GRAND CITY NWS   N/A     73 N/A N/A SE6         N/A
BUXTON         NOT AVBL
DEVILS LAKE    CLEAR     72  57  60 SE6       29.82S
FARGO          CLEAR     76  66  71 SE8       29.84R
WAHPETON ARPT  CLEAR     72  66  83 SE7       29.86R
$$

 *****  WEATHER ACROSS CENTRAL AND WESTERN NORTH DAKOTA  *****

CITY           SKY/WX    TMP DP  RH WIND       PRES   REMARKS
JAMESTOWN      CLEAR     72  67  84 SE9       29.83R
BISMARCK       PTCLDY    75  66  73 SE7       29.79R
MINOT          CLEAR     72  57  59 SE7       29.77R
MINOT AFB      NOT AVBL
GARRISON         N/A     71  63  75 SE5       29.79S
WILLISTON      CLEAR     77  36  22 NE6       29.78R
DICKINSON      CLEAR     71  56  58 SE9       29.80R
HETTINGER      CLEAR     65  55  70 CALM      29.84R
$$

 *****  OTHER OBSERVATIONS NORTHEAST NORTH DAKOTA  *****

CITY           SKY/WX    TMP DP  RH WIND       PRES   REMARKS
WALHALLA       FAIR      68  59  73 MISG      29.83R
LANGDON        FAIR      66  54  63 S9        29.86R
CAVALIER       FAIR      66  55  68 S3        29.83R
GRAFTON        FAIR      66  57  72 S8        29.83S
CANDO          NOT AVBL
FORT TOTTEN    NOT AVBL
ROLLA          FAIR      66  55  68 S10       29.84S
RUGBY          FAIR      73  59  60 SE13      29.80S
 ***** THE ABOVE OBSERVATIONS ARE NON NWS ARE NOT QUALITY
        CONTROLLED AND MAY MIS-REPORT RAIN FOR SNOW...
$$

 *****  OTHER OBSERVATIONS SOUTHEAST NORTH DAKOTA *****

CITY           SKY/WX    TMP DP  RH WIND       PRES   REMARKS
COOPERSTOWN    NOT AVBL
VALLEY CITY    FAIR      75  72  88 SE8       29.84S
OAKES            N/A     68  68 100 SE9       29.84S
GWINNER          N/A     73  73 100 SE8       29.86R
SHEYENNE NWR     N/A     74  72  92 SE6       29.95S
BUFFALO        NOT AVBL
WYNDMERE         N/A     72  70  94 SE3         N/A
 ***** THE ABOVE OBSERVATIONS ARE NON NWS ARE NOT QUALITY
       CONTROLLED AND MAY MIS-REPORT RAIN FOR SNOW...
$$

  *****  WEATHER ACROSS NORTHERN MINNESOTA  *****

CITY           SKY/WX    TMP DP  RH WIND       PRES   REMARKS
FLAG ISLAND    CLEAR     70  61  73 SE5       29.87S
WARROAD        CLEAR     66  61  82 S5        29.89R
ROSEAU         CLEAR     64  57  77 SE6       29.88R
HALLOCK        CLEAR     72  55  56 SE7       29.83S
THF RVR FALLS  CLEAR     66  55  68 SE8       29.88R
HALSTAD        NOT AVBL
FOSSTON        CLEAR     70  55  60 E5        29.91S
BAUDETTE       CLEAR     64  58  80 CALM      29.90R
WASKISH        CLEAR     63  61  94 CALM      29.91S
CROOKSTON      CLEAR     66  57  72 SE9       29.86S
$$
  *****  WEATHER ACROSS CENTRAL AND WEST MINNESOTA  *****

CITY           SKY/WX    TMP DP  RH WIND       PRES   REMARKS
BEMIDJI        PTCLDY    64  54  69 CALM      29.93R
PARK RAPIDS    MOCLDY    74  61  63 SE6       29.92R
WADENA         PTCLDY    72  68  88 E5        29.90F
DETROIT LAKES  CLEAR     73  64  73 SE5       29.90F
MOORHEAD       CLEAR     73  68  83 SE5       29.85S
FERGUS FALLS   CLEAR     73  70  88 SE6       29.86S
ELBOW LAKE     MOCLDY    72  70  93 SE5       29.88R
MORRIS MN      CLEAR     72  70  94 SE5       29.88S FOG
STAPLES        CLOUDY    72  68  88 E3        29.92S
WHEATON        CLEAR     70  66  88 SE5       29.89R
$$
  *****  WEATHER ELSEWHERE ACROSS MINNESOTA  *****

CITY           SKY/WX    TMP DP  RH WIND       PRES   REMARKS
DULUTH         MOCLDY    68  66  93 CALM      29.95R
INTRNTL FALLS  CLEAR     56  55  97 CALM      29.92R
ELY            PTCLDY    61  55  82 CALM      29.96S
CLOQUET        MOCLDY    70  66  88 CALM      29.95R
BRAINERD       CLOUDY    73  67  81 CALM      29.92S
HIBBING        MOCLDY    62  60  93 CALM      29.95R
ALEXANDRIA     PTCLDY    73  69  87 E7        29.90F
SAINT CLOUD    CLOUDY    72  68  87 E5        29.92R
MINNEAPOLIS    MOCLDY    81  72  74 S3        29.92R
$$

  *****  WEATHER ACROSS SOUTH DAKOTA  *****

CITY           SKY/WX    TMP DP  RH WIND       PRES   REMARKS
SIOUX FALLS    MOCLDY    74  71  91 CALM      29.86F
BROOKINGS      PTCLDY   N/A N/A N/A E13       29.89S
WATERTOWN      CLEAR     71  61  70 SE8       29.87S
HURON          CLEAR     71  69  93 SE8       29.83R
SISSETON         N/A     70  69  97 CALM      29.85S
ABERDEEN       CLEAR     69  64  84 SE6       29.83S
MITCHELL       CLEAR     71  69  93 SE6       29.84S
PIERRE         CLEAR     75  66  73 SE12      29.79R
MOBRIDGE       CLEAR     73  64  73 SE9       29.78R
RAPID CITY     CLEAR     62  56  80 CALM      29.87R
$$

  *****  SOME WEATHER IN NEARBY STATES *****

CITY           SKY/WX    TMP DP  RH WIND       PRES   REMARKS
GLASGOW MT     CLEAR     68  41  37 NE10      29.76R
GREAT FALLS MT CLEAR     68  29  23 NW6       29.77R
CHEYENNE WY    MOCLDY    70  39  32 W12       30.12R
SCOTTSBLUFF NE PTCLDY    68  55  63 E6        29.93R
OMAHA NE       CLOUDY    80  68  66 SE14      29.91R
DES MOINES IA  PTCLDY    77  68  73 S6        29.97S
DAVENPORT IA   PTCLDY    75  70  84 S6        30.02R
CHICAGO IL     PTCLDY    80  73  79 S10       30.02R
EAU CLAIRE WI  MOCLDY    78  73  84 SW5       29.94R
LA CROSSE WI   PTCLDY    79  73  82 S6        29.94R
$$

  *****  SOME NATIONAL WEATHER *****

CITY           SKY/WX    TMP DP  RH WIND       PRES   REMARKS
LA GUARDIA NY  CLEAR     77  66  68 S6        30.05R
RALEIGH NC     PTCLDY    74  69  85 CALM      30.08S
ATLANTA GA     MOCLDY    77  68  73 CALM      30.11S
NEW ORLEANS LA CLOUDY    81  72  74 S3        30.05R
OKLAHOMA CITY  PTCLDY    77  63  61 SE8       30.02R
ALBUQUERQUE NM MOCLDY    79  43  27 S7        30.15R
SALT LAKE CITY PTCLDY    83  38  20 S9        29.89R
LOS ANGELES CA MOCLDY    69  63  81 W10       29.91R
BOISE ID       CLEAR     79  41  25 CALM      29.75R
SEATTLE WA     CLOUDY    59  56  89 S10       29.79F
$$

*** WEATHER ACROSS MANITOBA...SASKATCHEWAN AND ONTARIO ***
                ***ONTARIO***

CITY           SKY/WX    TMP DP  RH WIND       PRES   REMARKS
GERALDTON      PTCLDY    61  55  82 SW5       29.90R
THUNDER BAY    PTCLDY    61  59  94 NW5       29.92S
SIOUX LOOKOUT  CLEAR     57  54  88 S5        29.91R
TORONTO        CLEAR     75  64  69 NW6       30.03F
BIG TROUT LK   CLEAR     57  55  94 NE6       29.83R
PICKLE LAKE    NOT AVBL
DRYDEN         CLEAR     68  50  52 S7        29.91R
KENORA         CLEAR     70  55  60 S6        29.89R
$$
                *** MANITOBA***

CITY           SKY/WX    TMP DP  RH WIND       PRES   REMARKS
BRANDON        PTCLDY    72  59  64 SE10      29.76S
DAUPHIN        PTCLDY    68  57  68 SE6       29.72S
ISLAND LAKE    PTCLDY    66  63  88 NE3       29.76R
PILOT MOUND      N/A     66  52  59 S9          N/A
THE PAS        PTCLDY    63  54  72 S10       29.67R
THOMPSON       PTCLDY    61  55  82 E7        29.74R
WINNIPEG       CLEAR     73  57  56 S13       29.80R
LYNN LAKE      CLEAR     61  57  88 SE8       29.67R
CHURCHILL      CLOUDY    50  46  87 SE9       29.85S
$$
                ***SASKATCHEWAN***

CITY           SKY/WX    TMP DP  RH WIND       PRES   REMARKS
ESTEVAN        PTCLDY    64  52  63 NW6       29.78R
KINDERSLEY     MOCLDY    63  39  42 E13       29.71S
LLOYDMINSTER   PTCLDY    54  37  54 E3        29.72R
PRINCE ALBERT  PTCLDY    61  45  55 W8        29.71R
REGINA         PTCLDY    66  48  52 E6        29.76R
YORKTON        CLEAR     68  52  56 W6        29.76R



USA.gov is the U.S. government's official web portal to all federal, state and local government web resources and services.